DW4691 Weather Reports


time (UTC)temp
C
wind
direction
speed
KPH
gust
KPH
rain 1hr
cm
rain 24hr
cm
rain mn
cm
humidity
%
barometer
mb
20260509234553 28 0 0.0 0.0 0.00 0.00 0.00 80 1008.0
20260509233047 28 0 0.0 0.0 0.00 0.00 0.00 78 1008.0
20260509231545 29 0 0.0 0.0 0.00 0.00 0.00 77 1007.9
20260509230057 30 0 0.0 0.0 0.00 0.00 0.00 75 1007.8
20260509224543 30 0 0.0 0.0 0.00 0.00 0.00 71 1007.6
20260509223044 31 0 0.0 0.0 0.00 0.00 0.00 69 1007.6
20260509221542 31 0 0.0 0.0 0.00 0.00 0.00 69 1007.5
20260509220050 31 0 0.0 0.0 0.00 0.00 0.00 64 1007.6
20260509214547 31 0 0.0 0.0 0.00 0.00 0.00 62 1007.5
20260509213055 31 0 0.0 0.0 0.00 0.00 0.00 63 1007.5
20260509211543 32 0 0.0 0.0 0.00 0.00 0.00 66 1007.7
20260509210053 32 0 0.0 0.0 0.00 0.00 0.00 63 1007.8
20260509204543 32 0 0.0 0.0 0.00 0.00 0.00 68 1008.0
20260509203043 32 0 0.0 0.0 0.00 0.00 0.00 67 1008.1
20260509201546 31 0 0.0 0.0 0.00 0.00 0.00 65 1008.3
20260509200046 32 0 0.0 0.0 0.00 0.00 0.00 64 1008.4
20260509194543 31 0 0.0 0.0 0.00 0.00 0.00 68 1008.6
20260509193045 31 0 0.0 0.0 0.00 0.00 0.00 66 1008.7
20260509191543 31 0 0.0 0.0 0.00 0.00 0.00 69 1008.9
20260509190045 30 0 0.0 0.0 0.00 0.00 0.00 69 1009.0
20260509184552 30 0 0.0 0.0 0.00 0.00 0.00 71 1009.3
20260509183051 29 0 0.0 0.0 0.00 0.00 0.00 76 1009.6
20260509181558 29 0 0.0 0.0 0.00 0.00 0.00 74 1009.8
20260509180050 30 0 0.0 0.0 0.00 0.00 0.00 72 1010.1
20260509174545 29 0 0.0 0.0 0.00 0.00 0.00 74 1010.1
20260509173046 29 0 0.0 0.0 0.00 0.00 0.00 75 1010.3
20260509171542 28 0 0.0 0.0 0.00 0.00 0.00 77 1010.1
20260509170052 28 0 0.0 8.0 0.00 0.00 0.00 78 1010.2
20260509164544 28 0 0.0 3.2 0.00 0.00 0.00 81 1009.8
20260509163049 27 0 0.0 0.0 0.00 0.00 0.00 83 1010.0
20260509161545 26 0 0.0 1.6 0.00 0.00 0.00 85 1010.3
20260509160046 26 0 0.0 0.0 0.00 0.00 0.00 87 1010.4
20260509154550 26 0 0.0 0.0 0.00 0.00 0.00 87 1010.8
20260509153057 25 0 0.0 0.0 0.00 0.00 0.00 87 1010.9
20260509151550 25 0 0.0 0.0 0.00 0.00 0.00 88 1010.8
20260509150058 25 0 0.0 0.0 0.00 0.00 0.00 90 1010.6
20260509144558 25 0 0.0 0.0 0.00 0.00 0.00 90 1010.5
20260509143051 24 0 0.0 0.0 0.00 0.00 0.00 91 1010.2
20260509141553 24 0 0.0 0.0 0.00 0.00 0.00 91 1010.0
20260509140048 24 0 0.0 0.0 0.00 0.00 0.00 91 1010.0
20260509134549 23 0 0.0 0.0 0.00 0.00 0.00 92 1010.2
20260509133045 23 0 0.0 0.0 0.00 0.00 0.00 92 1010.7
20260509131546 23 0 0.0 0.0 0.00 0.00 0.00 92 1010.5
20260509130044 23 0 0.0 0.0 0.00 0.00 0.00 93 1010.6
20260509124544 23 0 0.0 0.0 0.00 0.00 0.00 93 1010.6
20260509123043 23 0 0.0 0.0 0.00 0.00 0.00 92 1010.3
20260509121546 22 0 0.0 0.0 0.00 0.00 0.00 92 1010.3
20260509120058 23 0 0.0 0.0 0.00 0.00 0.00 92 1009.9
20260509114544 23 0 0.0 0.0 0.00 0.00 0.00 92 1009.9
20260509113043 23 0 0.0 0.0 0.00 0.00 0.00 92 1010.1
20260509111548 23 0 0.0 0.0 0.00 0.00 0.00 92 1010.0
20260509110048 23 0 0.0 0.0 0.00 0.00 0.00 92 1010.4
20260509104546 23 0 0.0 0.0 0.00 0.00 0.00 92 1010.1
20260509103044 23 0 0.0 0.0 0.00 0.00 0.00 92 1010.1
20260509101552 23 0 0.0 0.0 0.00 0.00 0.00 92 1009.6
20260509100045 23 0 0.0 0.0 0.00 0.00 0.00 92 1009.3
20260509094543 23 0 0.0 0.0 0.00 0.00 0.00 92 1009.4
20260509093048 23 0 0.0 0.0 0.00 0.00 0.00 92 1009.5
20260509091602 23 0 0.0 0.0 0.00 0.00 0.00 92 1009.6
20260509090046 23 0 0.0 0.0 0.00 0.00 0.00 92 1009.8
20260509084547 23 0 0.0 0.0 0.00 0.00 0.00 92 1010.1
20260509083052 23 0 0.0 0.0 0.00 0.00 0.00 92 1010.0
20260509081542 23 0 0.0 0.0 0.00 0.00 0.00 92 1010.0
20260509080051 23 0 0.0 0.0 0.00 0.00 0.00 92 1009.8
20260509074552 23 0 0.0 0.0 0.00 0.00 0.00 92 1009.6
20260509073113 23 0 0.0 0.0 0.00 0.00 0.00 92 1009.7
20260509071543 23 0 0.0 0.0 0.00 0.00 0.00 92 1009.8
20260509070044 23 0 0.0 0.0 0.00 0.00 0.00 92 1009.7
20260509064546 22 0 0.0 0.0 0.00 0.00 0.00 92 1009.8
20260509063045 22 0 0.0 0.0 0.00 0.00 0.00 92 1009.9
20260509061550 22 0 0.0 0.0 0.00 0.00 0.00 91 1010.1
20260509060057 22 0 0.0 0.0 0.00 0.00 0.00 92 1010.3
20260509054547 22 0 0.0 0.0 0.00 0.00 0.00 92 1010.4
20260509053040 22 0 0.0 0.0 0.00 0.00 0.00 92 1010.3
20260509051545 22 0 0.0 0.0 0.00 0.00 0.00 92 1010.3
20260509050045 22 0 0.0 0.0 0.00 0.00 0.00 92 1010.3
20260509044542 22 0 0.0 0.0 0.00 0.00 0.00 92 1010.5
20260509043048 22 0 0.0 0.0 0.00 0.00 0.00 92 1010.4
20260509041546 22 0 0.0 0.0 0.00 0.00 0.00 91 1010.5
20260509040104 22 0 0.0 0.0 0.00 0.00 0.00 91 1010.4
20260509034548 22 0 0.0 0.0 0.00 0.00 0.00 91 1010.0
20260509033052 22 0 0.0 0.0 0.00 0.00 0.00 91 1009.9
20260509031556 22 0 0.0 0.0 0.00 0.00 0.00 91 1010.0
20260509030049 22 0 0.0 4.8 0.00 0.00 0.00 91 1009.9
20260509024549 22 0 0.0 4.8 0.00 0.00 0.00 91 1009.5
20260509023050 22 0 0.0 0.0 0.00 0.00 0.00 90 1009.5
20260509021551 23 0 0.0 0.0 0.00 0.00 0.00 90 1009.4
20260509020049 23 0 0.0 0.0 0.00 0.00 0.00 90 1009.1
20260509014546 23 0 0.0 0.0 0.00 0.00 0.00 90 1009.1
20260509013053 23 0 0.0 0.0 0.00 0.00 0.00 89 1009.3
20260509011558 23 0 0.0 1.6 0.00 0.00 0.00 89 1009.2
20260509010047 23 0 0.0 3.2 0.00 0.00 0.00 89 1008.9
20260509004553 23 0 0.0 1.6 0.00 0.00 0.00 88 1008.7
20260509003043 23 40 0.0 3.2 0.00 0.00 0.00 87 1008.6
20260509001551 24 0 0.0 1.6 0.00 0.00 0.00 86 1008.9
20260509000046 25 0 0.0 3.2 0.00 0.00 0.00 85 1009.1